This demonstration page uses our WeatherBlox Daily Observations layout. Learn more.

40.92945, -100.16068

Hourly Observations for May 7, 2018

Temp ( °F °C ) Dew Point ( °F °C ) Humidity (%) Winds ( mph kmh ) Pressure ( in mb ) Visibility ( mi km ) Precip ( " mm )
12:15 am 00:15 Clear 52 11.1 43 6.2 72 72 Calm 30.18 1022 10 16.0934 0 0
12:35 am 00:35 Clear 51 10.3 42 5.7 73 73 Calm 30.18 1022 10 16.0934 0 0
12:55 am 00:55 Clear 50 10.2 42 5.7 74 74 Calm 30.18 1022 10 16.0934 0 0
1:15 am 01:15 Clear 50 9.8 41 5 72 72 Calm 30.18 1022 10 16.0934 0 0
1:35 am 01:35 Clear 49 9.3 41 5.1 75 75 Calm 30.18 1022 10 16.0934 0 0
1:55 am 01:55 Clear 49 9.3 42 5.6 78 78 Calm 30.18 1022 10 16.0934 0 0
2:15 am 02:15 Clear 48 9 42 5.8 81 81 Calm 30.18 1022 10 16.0934 0 0
2:35 am 02:35 Clear 49 9.5 42 5.5 76 76 Calm 30.21 1023 10 16.0934 0 0
2:55 am 02:55 Clear 46 7.8 41 5 83 83 Calm 30.21 1023 10 16.0934 0 0
3:15 am 03:15 Partly Cloudy 47 8.6 40 4.4 75 75 E 3 6 30.18 1022 10 16.0934 0 0
3:35 am 03:35 Clear 47 8.6 40 4.5 76 76 ESE 5 7 30.18 1022 10 16.0934 0 0
3:55 am 03:55 Clear 48 9 41 4.8 75 75 SSE 3 6 30.21 1023 10 16.0934 0 0
4:15 am 04:15 Clear 47 8.6 40 4.4 75 75 Calm 30.21 1023 10 16.0934 0 0
4:35 am 04:35 Clear 47 8.5 41 5 79 79 Calm 30.24 1024 10 16.0934 0 0
4:55 am 04:55 Clear 49 9.6 42 5.4 75 75 SE 5 7 30.21 1023 10 16.0934 0 0
5:15 am 05:15 Clear 51 10.6 42 5.8 72 72 SE 7 11 30.18 1022 10 16.0934 0 0
5:35 am 05:35 Clear 53 11.7 44 6.5 71 71 SE 5 7 30.15 1021 10 16.0934 0 0
5:55 am 05:55 Clear 52 10.9 44 6.4 74 74 SE 7 11 30.18 1022 10 16.0934 0 0
6:15 am 06:15 Clear 52 11 44 6.5 74 74 SE 6 9 30.18 1022 10 16.0934 0 0
6:35 am 06:35 Sunny 51 10.4 43 6.3 76 76 SE 6 9 30.18 1022 10 16.0934 0 0
6:55 am 06:55 Sunny 51 10.6 43 6.3 75 75 ESE 5 7 30.18 1022 10 16.0934 0 0
7:15 am 07:15 Sunny 51 10.8 45 7.3 79 79 ESE 5 7 30.21 1023 10 16.0934 0 0
7:35 am 07:35 Sunny 56 13.3 47 8.2 71 71 SE 6 9 30.18 1022 10 16.0934 0 0
7:55 am 07:55 Sunny 59 14.8 47 8.6 67 67 Calm 30.18 1022 10 16.0934 0 0
8:15 am 08:15 Sunny 61 15.9 49 9.2 65 65 ESE 5 7 30.15 1021 10 16.0934 0 0
8:35 am 08:35 Sunny 62 16.6 49 9.6 64 64 ESE 6 9 30.15 1021 10 16.0934 0 0
8:55 am 08:55 Partly Cloudy 64 18 50 9.9 59 59 SE 7 11 30.09 1019 10 16.0934 0 0
9:15 am 09:15 Partly Cloudy 65 18.6 49 9.2 55 55 SE 12 19 30.09 1019 10 16.0934 0 0
9:35 am 09:35 Sunny 67 19.6 49 9.5 52 52 SSE 15 24 30.09 1019 10 16.0934 0 0
9:55 am 09:55 Sunny 71 21.5 49 9.4 46 46 SE 21 33 30.06 1018 10 16.0934 0 0
10:15 am 10:15 Sunny 72 22.2 49 9.2 44 44 SSE 20 31 30.06 1018 10 16.0934 0 0
10:35 am 10:35 Sunny 73 23 49 9.2 42 42 SSE 20 31 30.03 1017 10 16.0934 0 0
10:55 am 10:55 Sunny 74 23.5 48 9 40 40 SSE 20 31 30.03 1017 10 16.0934 0 0
11:15 am 11:15 Sunny 76 24.5 47 8.6 36 36 SSE 18 30 30.03 1017 10 16.0934 0 0
11:35 am 11:35 Sunny 77 24.9 48 8.8 36 36 SSE 18 30 30 1016 10 16.0934 0 0
11:55 am 11:55 Sunny 78 25.7 47 8.2 33 33 SSE 18 30 29.97 1015 10 16.0934 0 0
12:15 pm 12:15 Sunny 80 26.4 47 8.1 31 31 SSE 16 26 29.97 1015 10 16.0934 0 0
12:35 pm 12:35 Sunny 81 27 46 7.6 29 29 SSE 21 33 29.97 1015 10 16.0934 0 0
12:55 pm 12:55 Sunny 81 27.3 46 7.8 29 29 S 22 35 29.97 1015 10 16.0934 0 0
1:15 pm 13:15 Sunny 82 27.8 46 7.7 28 28 SSE 21 33 29.91 1013 10 16.0934 0 0
1:35 pm 13:35 Sunny 82 27.5 44 6.9 27 27 SSE 23 37 29.94 1014 10 16.0934 0 0
1:55 pm 13:55 Sunny 83 28.1 45 7.1 26 26 SSE 21 33 29.88 1012 10 16.0934 0 0
2:15 pm 14:15 Sunny 82 27.9 45 7 27 27 SSE 20 31 29.88 1012 10 16.0934 0 0
2:35 pm 14:35 Sunny 83 28.6 44 6.8 25 25 SSE 22 35 29.88 1012 10 16.0934 0 0
2:55 pm 14:55 undefined N/A N/A N/A undefined N/A N/A N/A 0 0
3:15 pm 15:15 undefined N/A N/A N/A undefined N/A N/A N/A 0 0
3:35 pm 15:35 Sunny N/A N/A N/A SSE 20 31 N/A N/A 0.03 0.762
3:55 pm 15:55 Sunny N/A N/A N/A SSE 17 28 N/A 10 16.0934 0.03 0.762
4:15 pm 16:15 Sunny 85 29.7 47 8.4 26 26 SSE 16 26 29.85 1011 10 16.0934 0 0
4:35 pm 16:35 Sunny 85 29.6 47 8.1 26 26 SSE 20 31 29.85 1011 10 16.0934 0 0
4:55 pm 16:55 Sunny 85 29.5 47 8.3 26 26 SSE 17 28 29.85 1011 10 16.0934 0 0
5:15 pm 17:15 Sunny 85 29.5 47 8.6 27 27 SSE 20 31 29.85 1011 10 16.0934 0 0
5:35 pm 17:35 Sunny 85 29.5 47 8.2 26 26 SSE 23 37 29.83 1010 10 16.0934 0 0
5:55 pm 17:55 Sunny 84 29 47 8.4 27 27 SSE 16 26 29.83 1010 10 16.0934 0 0
6:15 pm 18:15 Sunny 84 29.1 47 8.5 27 27 SSE 22 35 29.83 1010 10 16.0934 0 0
6:35 pm 18:35 Sunny 84 28.7 47 8.4 28 28 SSE 20 31 29.83 1010 10 16.0934 0 0
6:55 pm 18:55 Sunny 82 28 47 8.5 29 29 SSE 22 35 29.83 1010 10 16.0934 0 0
7:15 pm 19:15 Sunny 82 27.6 47 8.6 30 30 SSE 22 35 29.83 1010 10 16.0934 0 0
7:35 pm 19:35 Sunny 81 27 48 8.8 32 32 SE 17 28 29.8 1009 10 16.0934 0 0
7:55 pm 19:55 Sunny 80 26.5 48 8.7 33 33 SSE 18 30 29.8 1009 10 16.0934 0 0
8:15 pm 20:15 Sunny 79 26.1 47 8.6 33 33 SE 15 24 29.83 1010 10 16.0934 0 0
8:35 pm 20:35 Sunny 78 25.5 47 8.6 34 34 SE 15 24 29.83 1010 10 16.0934 0 0
8:55 pm 20:55 Clear 77 25 48 8.7 36 36 SE 15 24 29.83 1010 10 16.0934 0 0
9:15 pm 21:15 Clear 76 24.3 48 8.8 37 37 SE 17 28 29.83 1010 10 16.0934 0 0
9:35 pm 21:35 Clear 75 23.9 48 9 39 39 SE 15 24 29.83 1010 10 16.0934 0 0
9:55 pm 21:55 Clear 74 23.3 48 9 40 40 SSE 17 28 29.83 1010 10 16.0934 0 0
10:15 pm 22:15 Clear 73 23 48 9 41 41 SSE 16 26 29.83 1010 10 16.0934 0 0
10:35 pm 22:35 Clear 73 22.5 49 9.2 43 43 SSE 14 22 29.85 1011 10 16.0934 0 0
10:55 pm 22:55 Clear 72 22.1 49 9.2 44 44 SSE 15 24 29.85 1011 10 16.0934 0 0
11:15 pm 23:15 Clear 72 22 49 9.3 44 44 SSE 15 24 29.83 1010 10 16.0934 0 0
11:35 pm 23:35 Clear 72 22 49 9.3 44 44 SSE 15 24 29.83 1010 10 16.0934 0 0
11:55 pm 23:55 Clear 72 22.1 49 9.3 44 44 SSE 16 26 29.83 1010 10 16.0934 0 0

Powered by AerisWeather